EW1675 Weather Reports


time (UTC)temp
F
wind
direction
speed
knots
gust
knots
rain 1hr
in
rain 24hr
in
rain mn
in
humidity
%
barometer
mb
20260905235043 77 0 0.0 0.0 0.00 0.00 0.00 83 1011.8
20260905234002 77 0 0.0 0.0 0.00 0.00 0.00 82 1011.9
20260905233002 77 0 0.0 0.0 0.00 0.00 0.00 81 1011.7
20260905232022 78 0 0.0 0.0 0.00 0.00 0.00 80 1011.6
20260905231002 78 0 0.0 0.0 0.00 0.00 0.00 79 1011.6
20260905230023 79 0 0.0 0.0 0.00 0.00 0.00 78 1011.6
20260905225001 79 0 0.0 0.0 0.00 0.00 0.00 77 1011.7
20260905224002 79 0 0.0 0.0 0.00 0.00 0.00 76 1011.5
20260905223044 79 0 0.0 0.0 0.00 0.00 0.00 77 1011.5
20260905222023 80 0 0.0 0.0 0.00 0.00 0.00 77 1011.4
20260905221002 80 95 0.0 1.7 0.00 0.00 0.00 76 1011.4
20260905220044 80 99 0.0 0.9 0.00 0.00 0.00 77 1011.4
20260905215023 80 0 0.0 0.0 0.00 0.00 0.00 77 1011.4
20260905214044 80 99 0.0 0.9 0.00 0.00 0.00 77 1011.1
20260905213002 80 0 0.0 0.0 0.00 0.00 0.00 75 1011.1
20260905212023 81 99 0.0 1.7 0.00 0.00 0.00 74 1011.0
20260905211002 81 0 0.0 0.0 0.00 0.00 0.00 74 1010.7
20260905210002 81 96 0.0 0.9 0.00 0.01 0.00 74 1010.6
20260905205002 82 338 0.9 3.5 0.00 0.02 0.00 73 1010.8
20260905204023 82 332 0.0 0.9 0.00 0.08 0.00 74 1011.0
20260905203002 82 335 0.0 2.6 0.00 0.09 0.00 73 1010.7
20260905202002 82 349 0.9 4.3 0.00 0.11 0.00 72 1010.9
20260905201023 82 321 0.9 3.5 0.00 0.11 0.00 71 1010.9
20260905200002 82 308 0.0 1.7 0.00 0.11 0.00 73 1011.1
20260905195002 82 302 0.0 2.6 0.00 0.11 0.00 71 1011.2
20260905194002 82 300 0.9 3.5 0.00 0.11 0.00 73 1011.2
20260905193002 82 334 0.9 5.2 0.00 0.11 0.00 75 1011.2
20260905192023 81 333 0.0 4.3 0.00 0.11 0.00 73 1011.2
20260905191002 81 336 0.0 0.9 0.00 0.11 0.00 76 1011.3
20260905190002 81 5 0.9 1.7 0.00 0.11 0.00 77 1011.4
20260905185044 81 339 0.9 3.5 0.00 0.11 0.00 75 1011.5
20260905184023 81 327 0.0 1.7 0.00 0.11 0.00 76 1011.5
20260905183002 81 309 0.0 3.5 0.00 0.11 0.00 76 1011.5
20260905182023 81 258 0.0 2.6 0.00 0.11 0.00 76 1011.5
20260905181023 81 146 0.0 1.7 0.00 0.11 0.00 77 1011.7
20260905180023 81 144 0.0 2.6 0.00 0.11 0.00 77 1011.7
20260905175023 80 83 0.0 1.7 0.00 0.11 0.00 77 1011.7
20260905174023 80 344 0.0 1.7 0.00 0.11 0.00 77 1012.0
20260905173002 80 344 0.0 1.7 0.00 0.11 0.00 79 1012.0
20260905172002 79 344 0.0 0.9 0.00 0.11 0.00 79 1012.3
20260905171105 79 344 0.0 0.9 0.00 0.11 0.00 79 1012.6
20260905170002 79 344 0.0 0.9 0.00 0.11 0.00 78 1012.6
20260905165023 79 0 0.0 0.0 0.00 0.11 0.00 79 1012.7
20260905164002 79 0 0.0 0.0 0.00 0.11 0.00 80 1012.9
20260905163002 79 344 0.0 0.9 0.00 0.11 0.00 81 1013.0
20260905162002 78 344 0.0 2.6 0.00 0.11 0.00 81 1013.0
20260905161002 78 344 0.9 1.7 0.00 0.11 0.00 80 1013.1
20260905160024 78 349 0.9 3.5 0.00 0.11 0.00 80 1013.4
20260905155023 78 340 0.0 2.6 0.00 0.11 0.00 81 1013.3
20260905154002 78 26 0.9 3.5 0.00 0.11 0.00 80 1013.1
20260905153003 78 303 0.9 3.5 0.00 0.11 0.00 81 1013.2
20260905152002 79 265 0.0 2.6 0.00 0.11 0.00 81 1013.3
20260905151023 78 339 0.0 1.7 0.00 0.11 0.00 82 1013.2
20260905150024 78 342 0.9 2.6 0.00 0.11 0.00 81 1013.3
20260905145002 78 340 0.9 4.3 0.00 0.11 0.00 83 1013.2
20260905144044 78 301 0.9 3.5 0.00 0.11 0.00 82 1013.3
20260905143003 78 342 0.9 4.3 0.00 0.11 0.00 83 1013.1
20260905142023 78 343 0.0 2.6 0.00 0.11 0.00 84 1013.4
20260905141003 78 341 0.9 3.5 0.00 0.11 0.00 85 1013.1
20260905140045 78 318 0.9 4.3 0.00 0.11 0.00 85 1012.8
20260905135003 78 338 0.9 3.5 0.00 0.11 0.00 87 1012.4
20260905134003 77 350 1.7 7.0 0.00 0.11 0.00 89 1012.3
20260905133003 75 13 1.7 3.5 0.00 0.11 0.00 93 1012.6
20260905132045 74 357 0.9 3.5 0.00 0.11 0.00 96 1012.4
20260905131003 73 350 0.9 3.5 0.00 0.11 0.00 97 1012.5
20260905130003 73 18 0.9 3.5 0.00 0.11 0.00 98 1012.5
20260905125003 72 217 0.0 1.7 0.00 0.11 0.00 98 1012.4
20260905124024 72 209 0.0 1.7 0.00 0.11 0.00 98 1012.4
20260905123003 72 208 0.0 0.9 0.00 0.11 0.00 98 1012.3
20260905122024 71 208 0.0 0.9 0.00 0.11 0.00 98 1012.3
20260905121024 70 0 0.0 0.0 0.00 0.11 0.00 97 1012.3
20260905120024 70 0 0.0 0.0 0.00 0.11 0.00 97 1012.3
20260905115003 69 0 0.0 0.0 0.00 0.11 0.00 97 1012.1
20260905114003 69 0 0.0 0.0 0.00 0.11 0.00 97 1012.1
20260905113021 69 0 0.0 0.0 0.00 0.11 0.00 97 1012.1
20260905112000 69 208 0.0 0.9 0.00 0.11 0.00 97 1012.2
20260905111000 69 0 0.0 0.0 0.00 0.11 0.00 97 1012.2
20260905110000 69 0 0.0 0.0 0.00 0.11 0.00 97 1011.9
20260905105000 69 0 0.0 0.0 0.00 0.11 0.00 97 1011.7
20260905104021 69 0 0.0 0.0 0.00 0.11 0.00 97 1011.8
20260905103021 69 0 0.0 0.0 0.00 0.11 0.00 97 1011.6
20260905102042 69 0 0.0 0.0 0.00 0.11 0.00 97 1011.2
20260905101021 69 0 0.0 0.0 0.00 0.11 0.00 97 1011.2
20260905100000 69 208 0.0 0.9 0.00 0.11 0.00 96 1011.2
20260905095021 69 0 0.0 0.0 0.00 0.11 0.00 96 1011.1
20260905094000 69 0 0.0 0.0 0.00 0.11 0.00 96 1011.1
20260905093000 69 0 0.0 0.0 0.00 0.11 0.00 96 1011.1
20260905092103 69 0 0.0 0.0 0.00 0.11 0.00 96 1011.1
20260905091000 69 0 0.0 0.0 0.00 0.11 0.00 96 1011.1
20260905090000 69 0 0.0 0.0 0.00 0.11 0.00 96 1011.1
20260905085000 70 0 0.0 0.0 0.00 0.11 0.00 96 1011.2
20260905084000 70 0 0.0 0.0 0.00 0.11 0.00 96 1011.2
20260905083000 70 0 0.0 0.0 0.00 0.11 0.00 96 1011.1
20260905082021 70 0 0.0 0.0 0.00 0.11 0.00 96 1011.1
20260905081043 70 0 0.0 0.0 0.00 0.11 0.00 96 1011.1
20260905080000 70 0 0.0 0.0 0.00 0.11 0.00 96 1011.4
20260905075021 70 0 0.0 0.0 0.00 0.11 0.00 96 1011.5
20260905074001 70 0 0.0 0.0 0.00 0.11 0.00 96 1011.6
20260905073000 70 0 0.0 0.0 0.00 0.11 0.00 96 1011.6
20260905072001 70 0 0.0 0.0 0.00 0.11 0.00 96 1011.6
20260905071000 70 0 0.0 0.0 0.00 0.11 0.00 96 1011.6
20260905070001 71 0 0.0 0.0 0.00 0.11 0.00 96 1011.7
20260905065000 71 0 0.0 0.0 0.00 0.11 0.00 96 1011.8
20260905064104 71 0 0.0 0.0 0.00 0.11 0.00 96 1011.9
20260905063001 71 0 0.0 0.0 0.00 0.11 0.00 96 1012.1
20260905062022 71 0 0.0 0.0 0.00 0.11 0.00 96 1012.3
20260905061001 71 0 0.0 0.0 0.00 0.11 0.00 96 1012.3
20260905060043 71 0 0.0 0.0 0.00 0.11 0.00 96 1012.6
20260905055022 71 0 0.0 0.0 0.00 0.11 0.00 96 1012.7
20260905054001 71 0 0.0 0.0 0.00 0.11 0.00 96 1012.8
20260905053022 72 0 0.0 0.0 0.00 0.11 0.00 96 1012.8
20260905052001 72 0 0.0 0.0 0.00 0.12 0.00 96 1012.8
20260905051001 72 0 0.0 0.0 0.00 0.12 0.00 96 1012.8
20260905050001 72 0 0.0 0.0 0.00 0.13 0.00 96 1013.0
20260905045104 72 0 0.0 0.0 0.00 0.14 0.00 96 1013.1
20260905044001 72 0 0.0 0.0 0.00 0.14 0.00 96 1013.1
20260905043043 72 0 0.0 0.0 0.00 0.14 0.00 96 1013.1
20260905042043 72 0 0.0 0.0 0.00 0.14 0.00 96 1013.2
20260905041001 72 0 0.0 0.0 0.00 0.14 0.00 96 1013.4
20260905040001 72 0 0.0 0.0 0.00 0.21 0.00 96 1013.5
20260905035001 72 0 0.0 0.0 0.00 0.45 0.21 96 1013.6
20260905034022 72 208 0.0 0.9 0.00 0.57 0.21 96 1013.5
20260905033043 72 208 0.0 0.9 0.00 0.82 0.21 96 1013.6
20260905032001 72 0 0.0 0.0 0.00 1.16 0.21 96 1013.5
20260905031001 72 0 0.0 0.0 0.00 1.18 0.21 96 1013.5
20260905030104 72 0 0.0 0.0 0.00 1.22 0.21 95 1013.4
20260905025022 72 208 0.0 0.9 0.00 1.22 0.21 95 1013.6
20260905024022 72 0 0.0 0.0 0.00 1.22 0.21 95 1013.5
20260905023044 72 0 0.0 0.0 0.00 1.22 0.21 95 1013.7
20260905022001 72 0 0.0 0.0 0.00 1.22 0.21 95 1013.5
20260905021022 72 0 0.0 0.0 0.00 1.22 0.21 95 1013.4
20260905020001 72 0 0.0 0.0 0.00 1.22 0.21 95 1013.0
20260905015001 73 0 0.0 0.0 0.00 1.22 0.21 95 1012.9
20260905014001 73 0 0.0 0.0 0.00 1.22 0.21 95 1013.2
20260905013001 73 0 0.0 0.0 0.00 1.22 0.21 95 1013.0
20260905012022 73 208 0.0 0.9 0.00 1.22 0.21 94 1012.8
20260905011001 73 0 0.0 0.0 0.00 1.22 0.21 95 1012.7
20260905010022 73 0 0.0 0.0 0.00 1.22 0.21 94 1012.5
20260905005001 73 208 0.0 0.9 0.00 1.22 0.21 94 1012.5
20260905004001 73 0 0.0 0.0 0.00 1.22 0.21 94 1012.7
20260905003022 73 0 0.0 0.0 0.00 1.22 0.21 94 1012.5
20260905002001 74 0 0.0 0.0 0.00 1.22 0.21 94 1012.4
20260905001043 74 208 0.0 0.9 0.00 1.22 0.21 94 1012.4
20260905000022 74 208 0.0 0.9 0.00 1.22 0.21 94 1012.6